CST,Max TemperatureF,Mean TemperatureF,Min TemperatureF,Max Dew PointF,MeanDew PointF,Min DewpointF,Max Humidity, Mean Humidity, Min Humidity, Max Sea Level PressureIn, Mean Sea Level PressureIn, Min Sea Level PressureIn, Max VisibilityMiles, Mean VisibilityMiles, Min VisibilityMiles, Max Wind SpeedMPH, Mean Wind SpeedMPH, Max Gust SpeedMPH,PrecipitationIn, CloudCover, Events, WindDirDegrees
2014-1-1,1,-10,-21,-6,-16,-28,83,74,67,30.37,30.31,30.26,10,10,7,6,1,,0.00,6,,29
2014-1-2,4,-9,-22,-6,-16,-29,81,74,61,30.32,30.28,30.24,10,10,5,10,1,,0.00,6,Snow,356
2014-1-3,16,-4,-25,12,-6,-32,84,75,64,30.25,29.85,29.43,10,8,2,20,6,29,0.00,6,Snow,192
2014-1-4,21,13,5,20,9,0,93,81,69,30.01,29.70,29.41,10,6,1,15,8,24,0.00,8,Snow,272
2014-1-5,4,-6,-15,0,-13,-21,81,72,54,30.13,30.05,29.93,10,10,7,12,6,,0.00,2,Snow,306
2014-1-6,-15,-20,-26,-21,-28,-34,74,65,54,29.92,29.88,29.83,10,9,4,14,8,22,0.00,4,Snow,273
2014-1-7,-3,-15,-27,-14,-24,-35,78,69,57,30.07,29.91,29.80,10,10,7,12,6,18,0.00,2,Snow,256
2014-1-8,5,-13,-31,-8,-22,-40,82,70,55,30.34,30.22,30.07,10,10,5,7,2,,0.00,2,Snow,258
2014-1-9,15,-8,-32,14,-13,-40,93,68,47,30.34,30.16,29.93,10,10,4,13,3,18,0.00,3,,194
2014-1-10,25,20,15,25,21,14,97,94,92,29.93,29.71,29.40,5,3,1,10,7,17,0.00,8,Snow,181
2014-1-11,28,26,25,26,25,23,96,93,88,29.54,29.41,29.34,10,6,1,12,4,16,0.00,8,Snow,294
2014-1-12,34,28,23,29,26,22,94,87,75,29.58,29.46,29.36,10,9,5,12,6,22,0.02,5,Snow,207
2014-1-13,30,26,23,28,23,15,99,84,69,29.58,29.47,29.40,10,10,7,12,3,18,0.00,6,Snow,279
2014-1-14,23,18,13,17,13,9,93,83,70,29.85,29.69,29.56,10,8,2,18,6,28,0.00,8,Snow,7
2014-1-15,13,10,6,9,5,0,86,78,68,29.89,29.75,29.38,10,7,1,17,9,24,0.00,8,Snow,249
2014-1-16,25,17,9,24,13,6,94,87,82,29.57,29.39,29.26,10,6,1,10,6,20,0.00,8,Snow,246
2014-1-17,19,14,6,17,10,4,90,83,76,29.84,29.75,29.57,10,5,2,15,8,25,0.00,8,Snow,347
2014-1-18,19,10,0,12,6,-4,90,81,62,29.78,29.72,29.50,10,9,2,9,2,,0.00,5,Snow,203
2014-1-19,27,15,3,23,16,1,96,88,81,29.61,29.43,29.35,10,9,2,13,8,21,0.00,7,Snow,306
2014-1-20,6,0,-5,3,-4,-9,87,77,66,30.16,29.93,29.61,10,7,2,17,5,21,0.00,7,Snow,356
2014-1-21,5,-2,-9,-6,-10,-15,81,70,48,30.20,30.11,29.91,10,9,2,12,6,,0.00,6,Snow,280
2014-1-22,2,0,-1,-4,-6,-9,81,75,60,30.09,29.85,29.75,10,4,1,18,7,26,0.00,8,Snow,298
2014-1-23,3,-4,-10,-4,-9,-16,84,73,57,30.41,30.29,30.05,10,8,2,20,11,25,0.00,4,Snow,302
2014-1-24,23,7,-9,20,5,-16,91,80,63,30.03,29.50,29.20,10,5,1,20,9,26,0.00,8,Snow,241
2014-1-25,15,2,-12,11,-6,-18,85,74,60,29.60,29.49,29.27,10,5,0,22,12,31,0.00,7,Snow,315
2014-1-26,4,-2,-8,-1,-7,-14,82,77,73,29.65,29.37,29.18,10,4,1,17,3,26,0.00,8,Snow,297
2014-1-27,-4,-9,-15,-12,-18,-24,77,68,56,30.08,29.95,29.67,10,7,1,18,10,28,0.00,4,Snow,289
2014-1-28,-2,-11,-20,-12,-19,-27,75,66,56,30.07,29.94,29.78,10,10,5,14,8,22,0.00,3,Snow,252
2014-1-29,20,7,-6,8,-5,-13,74,58,37,29.82,29.71,29.52,10,10,7,13,9,23,0.00,3,Snow,227
2014-1-30,22,11,0,19,10,-5,93,80,59,29.78,29.55,29.45,10,6,1,13,7,20,0.00,6,Snow,296
2014-1-31,6,-6,-17,-4,-11,-22,82,73,56,29.97,29.91,29.79,10,10,10,10,5,,0.00,0,Snow,246